QPF
0.00 0.00 0.00 0.00 0.00 0.00 0.00 0.00 0.00 0.00 0.00 0.00 0.00 0.00 0.00 0.00 0.00 0.00 0.00 0.00 0.00 0.00 0.01 0.01 0.01 0.01 0.00 0.00 0.00 0.00 0.01 0.01 0.01 0.01 0.00 0.00 0.00 0.00 0.00 0.00 0.00 0.00
0.00 0.00 0.00 0.00 0.00 0.00 0.00 0.00 0.00 0.00 0.00 0.00 0.00 0.00 0.00 0.00 0.00 0.00 0.00 0.00 0.00 0.00 0.00 0.00 0.00 0.00 0.01 0.00 0.01 0.01 0.01 0.01 0.01 0.00 0.00 0.00 0.00 0.00 0.00 0.00 0.00 0.00
0.00 0.00 0.00 0.00 0.00 0.00 0.00 0.00 0.00 0.00 0.00 0.00 0.00 0.00 0.00 0.00 0.00 0.00 0.00 0.00 0.00 0.00 0.00 0.00 0.00 0.00 0.00 0.01 0.01 0.01 0.01 0.00 0.00 0.00 0.00 0.00 0.00 0.00 0.00 0.00 0.00 0.00
0.00 0.00 0.00 0.00 0.00 0.00 0.00 0.00 0.00 0.00 0.00 0.00 0.00 0.00 0.00 0.00 0.00 0.00 0.00 0.00 0.00 0.00 0.00 0.00 0.00 0.00 0.00 0.01 0.01 0.01 0.01 0.01 0.01 0.00 0.00 0.00 0.00 0.00 0.00 0.00 0.00 0.00
0.00 0.00 0.00 0.00 0.00 0.00 0.00 0.00 0.00 0.00 0.00 0.00 0.00 0.00 0.00 0.00 0.00 0.00 0.00 0.00 0.00 0.00 0.00 0.00 0.00 0.00 0.00 0.00 0.00 0.01 0.01 0.01 0.00 0.00 0.00 0.00 0.00 0.00 0.00 0.00 0.00 0.00
0.00 0.00 0.00 0.00 0.00 0.00 0.00 0.00 0.00 0.00 0.00 0.00 0.00 0.00 0.00 0.00 0.00 0.00 0.00 0.00 0.00 0.00 0.00 0.00 0.00 0.00 0.00 0.00 0.00 0.00 0.00 0.00 0.00 0.00 0.00 0.00 0.00 0.00 0.00 0.00 0.00 0.00
0.00 0.00 0.00 0.00 0.00 0.00 0.00 0.00 0.00 0.00 0.00 0.00 0.00 0.00 0.00 0.00 0.00 0.00 0.00 0.00 0.00 0.00 0.00 0.00 0.00 0.00 0.00 0.00 0.00 0.00 0.00 0.00 0.00 0.00 0.00 0.00 0.00 0.00 0.00 0.00 0.00 0.00
0.00 0.00 0.00 0.00 0.00 0.00 0.00 0.00 0.00 0.00 0.00 0.00 0.00 0.00 0.00 0.00 0.00 0.00 0.00 0.00 0.00 0.00 0.00 0.00 0.00 0.00 0.00 0.00 0.00 0.00 0.00 0.00 0.00 0.00 0.00 0.00 0.00 0.00 0.00 0.00 0.00 0.00
0.00 0.00 0.00 0.00 0.00 0.00 0.00 0.00 0.00 0.00 0.00 0.00 0.00 0.00 0.00 0.00 0.00 0.00 0.00 0.00 0.00 0.00 0.00 0.00 0.00 0.00 0.00 0.00 0.00 0.00 0.00 0.00 0.00 0.00 0.00 0.00 0.00 0.00 0.00 0.00 0.00 0.00
0.00 0.00 0.00 0.00 0.00 0.00 0.00 0.00 0.00 0.00 0.00 0.00 0.00 0.00 0.00 0.00 0.00 0.00 0.00 0.00 0.00 0.00 0.00 0.00 0.00 0.00 0.00 0.00 0.00 0.00 0.00 0.00 0.00 0.00 0.00 0.00 0.00 0.00 0.00 0.00 0.00 0.00
0.00 0.00 0.00 0.00 0.00 0.00 0.00 0.00 0.00 0.00 0.00 0.00 0.00 0.00 0.00 0.00 0.00 0.00 0.00 0.00 0.00 0.00 0.00 0.00 0.00 0.00 0.00 0.00 0.00 0.00 0.00 0.00 0.00 0.00 0.00 0.00 0.00 0.00 0.00 0.00 0.00 0.00
0.00 0.00 0.00 0.00 0.00 0.00 0.00 0.00 0.00 0.00 0.00 0.00 0.00 0.00 0.00 0.00 0.00 0.00 0.00 0.00 0.00 0.00 0.00 0.00 0.00 0.00 0.00 0.00 0.00 0.00 0.00 0.00 0.00 0.00 0.00 0.00 0.00 0.00 0.00 0.00 0.00 0.00
0.00 0.00 0.00 0.00 0.00 0.00 0.00 0.00 0.00 0.00 0.00 0.00 0.00 0.00 0.00 0.00 0.00 0.00 0.00 0.00 0.00 0.00 0.00 0.00 0.00 0.00 0.00 0.00 0.00 0.00 0.00 0.00 0.00 0.00 0.00 0.00 0.00 0.00 0.00 0.00 0.00 0.00
0.00 0.00 0.00 0.00 0.00 0.00 0.00 0.00 0.00 0.00 0.00 0.00 0.00 0.00 0.00 0.00 0.00 0.00 0.00 0.00 0.00 0.00 0.00 0.00 0.00 0.00 0.00 0.00 0.00 0.00 0.00 0.00 0.00 0.00 0.00 0.00 0.00 0.00 0.00 0.00 0.00 0.00
0.05 0.01 0.00 0.00 0.00 0.00 0.00 0.00 0.00 0.00 0.00 0.00 0.00 0.00 0.00 0.00 0.00 0.00 0.00 0.00 0.00 0.00 0.00 0.00 0.00 0.00 0.00 0.00 0.00 0.00 0.00 0.00 0.00 0.00 0.00 0.00 0.00 0.00 0.00 0.00 0.00 0.00
0.26 0.18 0.02 0.00 0.00 0.00 0.00 0.00 0.00 0.00 0.00 0.00 0.00 0.00 0.00 0.00 0.00 0.00 0.00 0.00 0.00 0.00 0.00 0.00 0.00 0.00 0.00 0.00 0.00 0.00 0.00 0.00 0.00 0.00 0.00 0.00 0.00 0.00 0.00 0.00 0.00 0.00
0.21 0.18 0.14 0.06 0.01 0.00 0.00 0.00 0.00 0.00 0.00 0.00 0.00 0.00 0.00 0.00 0.00 0.00 0.00 0.00 0.00 0.00 0.00 0.00 0.00 0.00 0.00 0.00 0.00 0.00 0.00 0.00 0.00 0.00 0.00 0.00 0.00 0.00 0.00 0.00 0.00 0.00
0.21 0.22 0.22 0.15 0.08 0.03 0.01 0.01 0.00 0.00 0.00 0.00 0.00 0.00 0.00 0.00 0.00 0.00 0.00 0.00 0.00 0.00 0.00 0.00 0.00 0.00 0.00 0.00 0.00 0.00 0.00 0.00 0.00 0.00 0.00 0.00 0.00 0.00 0.00 0.00 0.00 0.00
0.09 0.29 0.33 0.27 0.20 0.28 0.26 0.13 0.03 0.00 0.00 0.00 0.00 0.00 0.00 0.00 0.00 0.00 0.00 0.00 0.00 0.00 0.00 0.00 0.00 0.00 0.00 0.00 0.00 0.00 0.00 0.00 0.00 0.00 0.00 0.00 0.00 0.00 0.00 0.00 0.00 0.00
0.17 0.22 0.25 0.26 0.28 0.16 0.09 0.05 0.05 0.03 0.01 0.00 0.00 0.00 0.00 0.00 0.00 0.00 0.00 0.00 0.00 0.00 0.00 0.00 0.00 0.00 0.00 0.00 0.00 0.00 0.00 0.00 0.00 0.00 0.00 0.00 0.00 0.00 0.00 0.00 0.00 0.00
0.19 0.17 0.24 0.26 0.36 0.55 0.46 0.28 0.10 0.08 0.06 0.02 0.00 0.00 0.00 0.00 0.00 0.00 0.00 0.00 0.00 0.00 0.00 0.00 0.00 0.00 0.00 0.00 0.00 0.00 0.00 0.00 0.00 0.00 0.00 0.00 0.00 0.00 0.00 0.00 0.00 0.00
0.15 0.22 0.19 0.17 0.33 0.44 0.38 0.27 0.22 0.17 0.11 0.08 0.04 0.01 0.00 0.00 0.00 0.00 0.00 0.00 0.00 0.00 0.00 0.00 0.00 0.00 0.00 0.00 0.00 0.00 0.00 0.00 0.00 0.00 0.00 0.00 0.00 0.00 0.00 0.00 0.00 0.00
0.10 0.13 0.09 0.11 0.13 0.20 0.30 0.28 0.26 0.32 0.19 0.13 0.09 0.07 0.05 0.02 0.01 0.01 0.01 0.01 0.00 0.00 0.00 0.00 0.00 0.00 0.00 0.00 0.00 0.00 0.00 0.00 0.00 0.00 0.00 0.00 0.00 0.00 0.00 0.00 0.00 0.00
0.08 0.05 0.05 0.30 0.34 0.15 0.11 0.15 0.19 0.21 0.21 0.20 0.16 0.12 0.10 0.08 0.04 0.02 0.01 0.01 0.01 0.01 0.01 0.01 0.00 0.00 0.00 0.00 0.00 0.00 0.00 0.00 0.00 0.00 0.00 0.00 0.00 0.00 0.00 0.00 0.00 0.00
0.03 0.00 0.00 0.01 0.02 0.12 0.39 0.18 0.15 0.17 0.18 0.16 0.15 0.14 0.12 0.10 0.07 0.05 0.03 0.03 0.02 0.02 0.01 0.01 0.01 0.01 0.00 0.00 0.00 0.00 0.00 0.00 0.00 0.00 0.00 0.00 0.00 0.00 0.00 0.00 0.00 0.00
0.00 0.02 0.01 0.00 0.01 0.01 0.03 0.06 0.11 0.11 0.15 0.19 0.29 0.22 0.15 0.12 0.09 0.07 0.05 0.03 0.02 0.02 0.03 0.05 0.21 0.20 0.05 0.00 0.00 0.00 0.00 0.00 0.00 0.00 0.00 0.00 0.00 0.00 0.00 0.00 0.00 0.00
MSLP
1020.23 1020.40 1020.64 1020.79 1020.91 1020.91 1021.08 1021.32 1021.28 1021.47 1021.59 1021.52 1021.72 1021.72 1021.79 1021.67 1021.59 1021.72 1021.79 1021.84 1021.99 1022.08 1022.20 1022.28 1022.28 1022.32 1022.23 1022.23 1022.28 1022.43 1022.67 1022.84 1022.79 1022.79 1022.96 1022.99 1023.11 1023.11 1023.20 1023.20 1023.11 1023.08
1020.16 1020.23 1020.35 1020.52 1020.76 1020.84 1020.88 1020.88 1021.03 1021.16 1021.35 1021.35 1021.32 1021.35 1021.40 1021.43 1021.52 1021.55 1021.72 1021.88 1021.91 1021.99 1021.99 1022.08 1022.16 1022.20 1022.23 1022.23 1022.35 1022.52 1022.76 1022.84 1022.96 1022.55 1022.96 1023.08 1023.08 1023.03 1023.11 1023.08 1023.03 1022.88
1020.03 1020.16 1020.28 1020.52 1020.55 1020.72 1020.67 1020.72 1020.79 1020.91 1020.96 1020.96 1020.99 1021.11 1021.20 1021.20 1021.40 1021.43 1021.52 1021.64 1021.79 1021.76 1021.91 1021.91 1021.99 1022.08 1022.16 1022.23 1022.40 1022.55 1022.67 1022.79 1022.88 1022.52 1022.79 1022.99 1022.84 1023.03 1022.96 1022.84 1022.79 1022.88
1019.91 1019.91 1019.96 1020.03 1020.08 1020.35 1020.43 1020.67 1020.79 1020.84 1020.72 1020.96 1020.99 1020.84 1020.91 1020.91 1021.11 1021.32 1021.40 1021.52 1021.67 1021.76 1021.72 1021.76 1021.88 1021.88 1022.03 1022.16 1022.32 1022.47 1022.47 1022.64 1022.47 1022.52 1022.79 1022.76 1022.76 1022.76 1022.84 1022.84 1022.84 1022.84
1019.76 1019.88 1019.76 1019.79 1019.84 1019.99 1020.20 1020.47 1020.59 1020.64 1020.72 1020.64 1020.59 1020.72 1020.91 1021.03 1021.11 1021.16 1021.23 1021.35 1021.43 1021.55 1021.59 1021.79 1021.79 1021.88 1021.99 1022.11 1022.20 1022.43 1022.40 1022.47 1022.40 1022.52 1022.76 1022.88 1022.67 1022.72 1022.64 1022.76 1022.99 1023.08
1019.47 1019.59 1019.64 1019.67 1019.76 1019.96 1020.11 1020.28 1020.32 1020.35 1020.43 1020.52 1020.55 1020.47 1020.59 1020.72 1020.88 1020.91 1021.03 1021.16 1021.11 1021.23 1021.40 1021.47 1021.67 1021.72 1021.79 1021.96 1022.11 1022.20 1022.20 1022.28 1022.23 1022.47 1022.67 1022.79 1022.59 1022.40 1022.43 1022.59 1022.88 1023.08
1019.35 1019.47 1019.59 1019.52 1019.59 1019.64 1019.88 1019.96 1020.03 1020.11 1020.16 1020.11 1020.20 1020.47 1020.43 1020.64 1020.79 1020.84 1020.91 1020.99 1021.03 1021.16 1021.23 1021.47 1021.67 1021.76 1021.67 1021.88 1022.08 1022.23 1022.20 1022.23 1022.23 1022.43 1022.67 1022.59 1022.55 1022.59 1022.40 1022.55 1022.76 1022.91
1018.99 1019.11 1019.23 1019.35 1019.52 1019.52 1019.72 1019.72 1019.84 1019.96 1019.99 1020.08 1020.32 1020.28 1020.32 1020.52 1020.64 1020.59 1020.72 1020.88 1020.99 1021.16 1021.23 1021.28 1021.43 1021.64 1021.59 1021.64 1021.96 1022.11 1022.16 1021.96 1022.16 1022.40 1022.55 1022.64 1022.55 1022.72 1022.55 1022.43 1022.55 1022.84
1018.76 1018.96 1019.08 1019.28 1019.40 1019.40 1019.47 1019.43 1019.55 1019.67 1019.72 1019.99 1020.08 1020.03 1020.11 1020.28 1020.43 1020.47 1020.67 1020.79 1020.96 1021.08 1021.20 1021.28 1021.35 1021.40 1021.35 1021.52 1021.72 1021.91 1022.03 1021.96 1021.84 1022.08 1022.32 1022.43 1022.52 1022.52 1022.43 1022.28 1022.52 1022.64
1018.79 1018.79 1018.91 1019.08 1019.28 1019.20 1019.32 1019.23 1019.20 1019.35 1019.47 1019.72 1019.76 1019.72 1020.03 1020.11 1020.20 1020.35 1020.59 1020.84 1020.99 1021.08 1021.11 1021.16 1021.23 1021.23 1021.28 1021.28 1021.52 1021.64 1021.76 1021.88 1021.84 1021.91 1021.96 1022.03 1022.16 1022.16 1022.11 1022.20 1022.32 1022.47
1018.67 1018.67 1018.88 1018.96 1018.99 1018.91 1019.03 1019.03 1019.08 1019.16 1019.28 1019.47 1019.52 1019.64 1019.67 1019.88 1020.16 1020.23 1020.55 1020.76 1020.88 1020.96 1020.99 1021.08 1021.08 1021.08 1021.23 1021.20 1021.16 1021.16 1021.35 1021.43 1021.55 1021.67 1021.72 1021.79 1021.79 1021.84 1021.84 1021.96 1022.03 1022.16
1018.67 1018.67 1018.79 1018.79 1018.79 1018.76 1018.84 1018.88 1018.91 1019.03 1019.16 1019.23 1019.32 1019.55 1019.59 1019.59 1019.88 1019.99 1020.23 1020.55 1020.59 1020.64 1020.67 1020.76 1020.79 1020.88 1020.99 1021.08 1020.99 1020.99 1021.11 1021.20 1021.23 1021.40 1021.43 1021.52 1021.52 1021.52 1021.52 1021.55 1021.67 1021.76
1018.59 1018.67 1018.67 1018.64 1018.64 1018.64 1018.55 1018.72 1018.84 1018.88 1018.99 1019.16 1019.11 1019.32 1019.52 1019.55 1019.55 1019.79 1019.88 1020.08 1020.28 1020.32 1020.43 1020.52 1020.59 1020.59 1020.76 1020.84 1020.88 1020.91 1021.03 1021.16 1021.16 1021.20 1021.28 1021.28 1021.23 1021.20 1021.11 1021.16 1021.23 1021.32
1018.40 1018.43 1018.47 1018.47 1018.47 1018.55 1018.64 1018.64 1018.67 1018.79 1018.88 1018.91 1018.99 1019.28 1019.35 1019.35 1019.43 1019.55 1019.59 1019.67 1019.84 1019.99 1020.03 1020.11 1020.32 1020.40 1020.47 1020.59 1020.64 1020.72 1020.84 1020.96 1020.99 1021.08 1021.08 1021.08 1021.03 1020.96 1020.88 1020.88 1020.88 1020.91
1018.11 1018.16 1018.32 1018.52 1018.59 1018.67 1018.76 1018.79 1018.76 1018.84 1018.88 1018.91 1019.03 1019.08 1018.99 1018.99 1019.08 1019.20 1019.43 1019.59 1019.59 1019.72 1019.79 1019.79 1019.91 1020.03 1019.99 1020.20 1020.40 1020.55 1020.55 1020.72 1020.76 1020.84 1020.88 1020.96 1020.96 1020.84 1020.72 1020.76 1020.72 1020.59
1018.35 1018.28 1018.35 1018.52 1018.72 1018.79 1018.79 1018.88 1018.91 1018.91 1018.88 1018.99 1019.03 1018.99 1018.99 1019.03 1019.08 1019.16 1019.23 1019.40 1019.59 1019.59 1019.59 1019.59 1019.64 1019.55 1019.64 1019.91 1020.08 1020.20 1020.28 1020.32 1020.40 1020.52 1020.59 1020.67 1020.84 1020.88 1020.72 1020.55 1020.43 1020.35
1018.32 1018.55 1018.59 1018.72 1018.76 1018.91 1018.99 1019.03 1019.08 1019.03 1019.11 1019.11 1019.11 1019.08 1019.16 1019.16 1019.16 1019.20 1019.16 1019.11 1019.20 1019.28 1019.40 1019.32 1019.23 1019.11 1019.43 1019.67 1019.91 1020.11 1020.20 1020.23 1020.35 1020.40 1020.35 1020.47 1020.52 1020.67 1020.76 1020.55 1020.28 1020.11
1018.16 1018.40 1018.64 1018.67 1018.59 1018.79 1018.99 1018.91 1018.91 1019.03 1019.16 1019.16 1019.11 1019.16 1019.20 1019.03 1019.16 1019.16 1019.11 1019.03 1019.03 1019.03 1019.11 1019.03 1018.96 1018.96 1019.32 1019.55 1019.76 1019.96 1020.16 1020.16 1019.99 1019.99 1019.99 1020.08 1020.11 1020.20 1020.20 1020.20 1020.20 1020.08
1018.03 1018.28 1018.47 1018.52 1018.55 1018.72 1018.76 1018.59 1018.55 1018.72 1018.84 1018.91 1019.03 1018.96 1018.99 1019.20 1019.20 1019.16 1019.16 1019.03 1018.99 1019.16 1019.16 1018.91 1018.84 1018.76 1019.16 1019.40 1019.59 1019.79 1019.99 1020.20 1019.91 1019.76 1019.76 1019.76 1019.76 1019.84 1019.88 1019.96 1019.99 1020.03
1017.88 1017.91 1018.16 1018.28 1018.32 1018.52 1018.76 1018.88 1018.96 1018.88 1018.67 1018.59 1018.64 1018.79 1019.03 1019.08 1018.96 1019.03 1019.03 1019.11 1019.08 1019.08 1019.03 1018.79 1018.67 1018.59 1018.88 1019.11 1019.32 1019.55 1019.72 1020.03 1019.79 1019.64 1019.55 1019.47 1019.52 1019.52 1019.47 1019.55 1019.64 1019.79
1018.47 1018.43 1018.23 1018.11 1018.11 1018.35 1018.76 1019.08 1018.96 1018.76 1018.72 1018.64 1018.64 1018.72 1018.84 1018.96 1018.96 1019.03 1018.96 1018.88 1018.76 1018.76 1018.79 1018.76 1018.40 1018.43 1018.72 1018.88 1019.03 1019.32 1019.47 1019.88 1019.55 1019.40 1019.32 1019.28 1019.20 1019.16 1019.20 1019.20 1019.20 1019.23
1018.59 1018.59 1018.55 1018.40 1018.28 1018.40 1018.67 1018.96 1018.99 1018.76 1018.64 1018.47 1018.47 1018.59 1018.55 1018.55 1018.67 1018.67 1018.72 1018.67 1018.52 1018.52 1018.59 1018.67 1018.28 1018.47 1018.72 1018.88 1018.96 1019.11 1019.47 1019.52 1019.32 1019.40 1019.32 1019.16 1019.03 1018.91 1018.88 1018.84 1018.84 1018.96
1018.84 1018.99 1018.88 1018.72 1018.64 1018.72 1018.91 1019.03 1019.16 1019.08 1018.76 1018.35 1018.43 1018.43 1018.55 1018.64 1018.59 1018.55 1018.52 1018.52 1018.47 1018.47 1018.64 1018.67 1018.47 1018.72 1018.88 1018.99 1019.03 1019.16 1019.23 1019.08 1019.08 1019.08 1019.03 1019.03 1018.88 1018.72 1018.72 1018.67 1018.64 1018.67
1019.23 1019.20 1019.20 1019.11 1019.03 1018.96 1018.88 1018.91 1018.91 1018.88 1018.88 1018.64 1018.67 1018.67 1018.67 1018.64 1018.64 1018.72 1018.64 1018.59 1018.59 1018.47 1018.40 1018.64 1018.47 1018.59 1018.96 1019.11 1019.16 1019.16 1019.03 1018.88 1018.84 1018.91 1018.96 1018.88 1018.76 1018.59 1018.52 1018.55 1018.55 1018.67
1019.35 1019.35 1019.32 1019.23 1019.16 1019.08 1018.96 1018.91 1018.91 1018.96 1018.91 1018.79 1018.84 1018.88 1018.91 1018.72 1018.67 1018.76 1018.79 1018.72 1018.59 1018.64 1018.67 1018.76 1018.59 1018.79 1019.20 1019.43 1019.43 1019.32 1019.16 1018.76 1018.76 1018.79 1018.99 1018.88 1018.67 1018.64 1018.40 1018.40 1018.40 1018.35
1019.72 1019.72 1019.55 1019.43 1019.35 1019.16 1019.11 1019.28 1019.20 1019.08 1018.99 1019.03 1019.20 1019.16 1019.11 1019.03 1019.03 1018.99 1018.99 1018.84 1018.59 1018.55 1018.59 1018.59 1018.99 1019.40 1019.79 1019.76 1019.64 1019.59 1019.47 1019.11 1018.79 1018.96 1019.03 1018.91 1018.76 1018.72 1018.79 1018.52 1018.35 1018.32
Thickness
5774 5774 5773 5773 5773 5773 5773 5773 5773 5772 5772 5772 5773 5772 5773 5774 5774 5774 5773 5773 5772 5771 5771 5771 5770 5771 5771 5771 5771 5770 5770 5769 5769 5770 5769 5769 5769 5770 5769 5771 5772 5773
5773 5774 5774 5773 5773 5773 5773 5775 5775 5774 5774 5775 5775 5776 5776 5775 5775 5774 5773 5773 5773 5772 5772 5771 5771 5771 5771 5771 5771 5770 5770 5769 5770 5771 5769 5769 5769 5769 5769 5770 5771 5772
5773 5773 5774 5773 5773 5773 5774 5775 5775 5776 5777 5777 5777 5777 5777 5777 5776 5775 5774 5773 5773 5773 5773 5772 5772 5772 5771 5771 5771 5771 5771 5769 5770 5772 5771 5770 5770 5769 5770 5771 5772 5772
5773 5774 5774 5775 5775 5775 5775 5775 5774 5776 5777 5777 5778 5778 5778 5778 5777 5776 5775 5774 5774 5774 5774 5773 5773 5773 5772 5772 5772 5771 5772 5771 5771 5772 5771 5771 5771 5771 5771 5771 5770 5771
5773 5773 5775 5775 5776 5776 5775 5775 5774 5776 5777 5777 5778 5778 5778 5778 5777 5777 5777 5776 5776 5775 5775 5774 5774 5774 5773 5773 5773 5772 5773 5772 5772 5772 5770 5771 5772 5772 5772 5771 5769 5769
5773 5774 5775 5776 5777 5776 5776 5775 5776 5776 5776 5778 5779 5778 5778 5778 5777 5778 5778 5777 5777 5777 5776 5776 5775 5775 5774 5773 5773 5773 5773 5773 5773 5772 5770 5770 5772 5773 5773 5772 5770 5769
5772 5773 5774 5775 5777 5777 5776 5776 5776 5776 5777 5777 5777 5777 5777 5777 5776 5777 5777 5777 5777 5777 5776 5776 5775 5775 5775 5774 5773 5772 5773 5773 5773 5772 5770 5771 5772 5772 5773 5773 5771 5770
5772 5772 5773 5774 5776 5776 5776 5776 5776 5776 5777 5776 5775 5775 5775 5775 5775 5776 5776 5776 5776 5776 5775 5775 5775 5774 5775 5775 5774 5772 5772 5773 5774 5772 5770 5771 5771 5770 5772 5773 5772 5771
5771 5772 5773 5773 5774 5775 5775 5776 5776 5776 5776 5774 5775 5775 5775 5775 5774 5775 5775 5774 5775 5774 5774 5774 5774 5774 5775 5775 5774 5772 5772 5773 5774 5773 5771 5771 5771 5771 5773 5774 5772 5772
5771 5772 5772 5771 5773 5773 5774 5775 5775 5776 5776 5775 5775 5776 5775 5774 5774 5774 5773 5772 5772 5772 5773 5773 5773 5774 5774 5774 5775 5773 5773 5772 5773 5773 5772 5773 5773 5773 5774 5774 5773 5772
5770 5771 5771 5771 5772 5773 5773 5774 5774 5775 5775 5775 5775 5776 5775 5775 5774 5773 5772 5771 5770 5772 5772 5773 5773 5774 5773 5773 5775 5775 5774 5774 5774 5773 5773 5774 5774 5775 5775 5775 5775 5774
5768 5769 5769 5771 5772 5773 5773 5773 5774 5774 5774 5775 5775 5775 5775 5776 5775 5774 5773 5772 5771 5772 5773 5773 5773 5774 5773 5773 5774 5774 5774 5774 5774 5774 5774 5775 5775 5776 5777 5777 5777 5776
5765 5766 5767 5769 5770 5772 5772 5772 5772 5773 5773 5773 5774 5774 5774 5776 5776 5776 5775 5774 5773 5773 5774 5773 5774 5774 5773 5773 5773 5774 5773 5773 5774 5774 5775 5776 5777 5778 5779 5779 5779 5779
5766 5766 5766 5767 5767 5769 5769 5770 5770 5770 5771 5772 5772 5772 5773 5775 5776 5776 5776 5777 5776 5776 5776 5775 5775 5775 5774 5774 5773 5774 5773 5773 5774 5774 5775 5776 5777 5778 5780 5780 5780 5781
5764 5765 5764 5763 5764 5764 5764 5766 5767 5767 5769 5769 5770 5772 5773 5774 5776 5776 5775 5775 5775 5776 5777 5777 5777 5776 5777 5776 5775 5775 5774 5774 5774 5774 5775 5776 5777 5778 5779 5780 5780 5781
5760 5761 5760 5760 5759 5759 5760 5761 5762 5764 5766 5767 5768 5770 5771 5772 5773 5773 5773 5773 5773 5774 5776 5777 5778 5779 5779 5777 5776 5776 5775 5775 5775 5775 5775 5776 5776 5777 5778 5779 5781 5782
5758 5757 5755 5755 5756 5755 5755 5757 5759 5761 5763 5764 5765 5767 5768 5769 5770 5771 5772 5773 5773 5773 5774 5776 5778 5779 5779 5777 5776 5776 5776 5776 5775 5775 5775 5776 5776 5776 5776 5778 5780 5781
5755 5754 5751 5752 5752 5752 5753 5756 5757 5758 5759 5760 5762 5763 5764 5765 5766 5767 5769 5771 5773 5772 5773 5775 5777 5778 5776 5775 5775 5775 5774 5775 5776 5776 5776 5777 5776 5777 5777 5777 5778 5779
5753 5752 5750 5750 5751 5750 5752 5754 5754 5754 5755 5757 5759 5760 5761 5762 5762 5765 5766 5768 5770 5770 5771 5773 5775 5775 5774 5773 5773 5772 5772 5772 5775 5777 5777 5777 5777 5777 5777 5777 5777 5777
5750 5750 5750 5749 5749 5748 5747 5747 5748 5749 5751 5754 5756 5757 5757 5758 5759 5761 5763 5765 5766 5767 5768 5771 5773 5774 5773 5772 5771 5771 5770 5771 5773 5776 5777 5777 5778 5777 5777 5777 5777 5777
5744 5745 5746 5747 5747 5746 5743 5742 5742 5744 5747 5749 5752 5754 5754 5755 5756 5758 5760 5762 5764 5766 5766 5769 5771 5772 5771 5771 5771 5770 5769 5770 5772 5774 5776 5777 5777 5778 5778 5778 5778 5779
5740 5741 5741 5743 5743 5741 5738 5736 5737 5739 5742 5746 5749 5751 5752 5753 5754 5755 5757 5760 5762 5764 5764 5765 5768 5769 5768 5768 5769 5768 5767 5769 5770 5772 5774 5775 5776 5777 5778 5779 5779 5779
5735 5736 5737 5738 5739 5737 5735 5733 5733 5734 5738 5742 5745 5746 5748 5749 5750 5751 5754 5755 5758 5760 5760 5761 5763 5764 5764 5764 5765 5766 5766 5768 5769 5771 5772 5773 5774 5776 5777 5777 5777 5777
5730 5730 5732 5734 5735 5734 5734 5733 5733 5732 5733 5737 5740 5741 5743 5745 5746 5748 5749 5751 5753 5755 5757 5757 5759 5760 5759 5759 5760 5762 5764 5767 5768 5768 5769 5770 5772 5773 5775 5775 5776 5775
5724 5724 5726 5728 5730 5732 5733 5733 5732 5731 5732 5733 5735 5735 5737 5739 5741 5742 5744 5747 5750 5751 5753 5753 5754 5754 5753 5753 5754 5757 5759 5763 5765 5765 5765 5767 5768 5770 5771 5772 5773 5773
5718 5719 5721 5724 5726 5728 5729 5729 5729 5730 5730 5731 5731 5731 5731 5733 5735 5737 5739 5743 5746 5748 5750 5750 5750 5747 5745 5746 5748 5750 5752 5756 5759 5759 5760 5762 5765 5765 5766 5767 5769 5770